Wind_Speed
8 8 8 7 4 2 2 4 5 7 7 4 5 5 4 5 8 7 12 10 8 11 16 22 21 22 20 19 19 17 19 18 19 19 21 19 16 16 14 13 12 13 12 9 9 10 11 11 11
7 6 6 3 2 3 3 6 6 6 7 6 7 5 7 9 9 11 14 10 11 13 16 21 27 28 25 22 22 22 23 19 19 19 20 18 18 16 16 15 14 13 11 10 11 11 11 11 10
5 5 5 3 1 2 3 4 5 7 5 2 3 6 9 11 14 17 15 12 14 16 20 24 28 30 30 25 23 26 26 25 20 14 22 18 17 18 17 16 15 15 13 13 14 13 13 11 10
4 6 5 6 1 4 5 1 3 5 5 3 5 9 12 12 15 14 11 15 17 19 23 25 27 30 20 20 26 24 34 33 23 17 24 20 18 19 19 19 17 16 15 15 15 13 11 10 9
5 5 5 7 3 5 6 1 1 2 3 8 9 11 15 19 20 16 19 22 21 21 24 27 24 26 26 20 19 25 31 36 27 24 28 25 23 26 21 20 20 17 16 16 15 13 11 10 9
7 6 6 7 4 4 6 6 3 5 5 9 10 15 18 18 16 16 18 22 20 23 26 27 25 23 23 22 24 29 38 41 24 28 30 30 27 26 24 22 20 19 19 17 14 13 11 11 10
7 7 9 9 6 2 3 4 4 5 7 11 15 18 19 14 14 16 20 22 18 20 21 27 27 22 23 19 23 20 28 42 35 29 33 36 33 27 28 22 22 21 20 18 16 14 13 13 11
8 10 10 10 9 4 7 5 5 5 9 13 18 21 20 17 17 18 22 20 19 14 14 18 22 21 25 23 19 19 18 37 41 46 37 41 38 30 25 26 24 23 21 19 17 16 14 13 12
11 14 13 14 10 8 8 10 9 12 13 15 17 20 21 20 22 23 24 17 16 15 14 15 17 21 26 22 17 20 27 25 28 47 33 37 36 30 28 27 26 25 23 20 18 16 14 12 12
17 16 12 16 13 10 10 11 13 14 15 17 18 19 20 22 22 25 20 13 15 17 16 17 19 21 21 21 20 24 26 33 32 49 48 44 41 32 30 29 27 25 23 21 19 16 14 12 10
20 18 11 17 15 15 13 14 16 17 19 19 20 20 19 21 24 17 13 12 13 15 15 17 19 18 19 21 22 25 23 29 42 45 45 50 48 39 34 31 28 26 24 21 19 17 14 12 7
23 18 17 18 21 20 17 19 20 21 21 24 20 19 16 21 19 14 13 15 16 16 15 16 18 18 20 21 24 21 16 37 56 44 37 42 42 39 36 32 30 24 23 20 17 16 13 8 5
26 21 22 21 24 24 21 23 23 20 23 20 17 15 15 18 18 16 15 14 15 15 16 17 16 17 20 21 20 16 13 44 45 40 39 44 39 36 34 32 29 27 23 19 16 11 6 5 14
23 20 21 23 21 26 25 24 25 16 20 13 13 11 14 14 13 8 7 8 11 13 13 14 15 16 19 22 16 14 16 26 37 39 42 45 37 38 35 31 28 27 25 18 12 9 7 9 13
24 25 24 23 21 25 21 17 14 11 10 8 8 10 12 12 12 9 8 8 9 12 13 13 15 16 19 19 15 18 23 25 41 33 40 44 38 42 35 31 32 29 26 25 14 11 6 10 11
16 21 23 16 12 9 9 15 6 8 12 9 9 9 10 11 10 9 8 5 7 9 11 14 15 11 14 16 17 21 30 37 30 33 37 38 38 34 37 38 31 24 23 22 14 8 10 11 11
24 24 20 17 17 18 15 15 11 13 13 10 11 11 10 10 12 9 10 7 8 10 13 14 16 17 16 11 19 23 32 33 30 40 40 40 40 39 39 35 33 26 24 21 15 11 12 11 11
26 25 24 23 18 19 19 17 14 14 13 8 9 13 9 8 11 10 9 8 8 11 15 13 14 17 15 17 21 24 38 34 34 43 46 45 46 44 40 36 32 31 25 19 16 13 11 10 8
24 20 20 16 10 21 20 19 15 16 13 10 9 12 11 8 11 7 7 6 6 10 14 3 19 17 16 18 24 19 27 34 38 40 50 52 51 50 43 40 35 33 24 16 17 15 13 12 12
27 24 28 26 23 22 22 23 16 17 17 14 12 11 14 12 11 7 6 5 3 7 11 2 20 14 18 18 13 19 26 34 36 40 42 49 47 47 44 43 37 32 24 19 16 15 14 14 12
31 34 31 27 25 24 23 27 19 15 18 16 13 12 13 11 11 9 5 4 2 3 6 6 14 16 18 20 20 20 25 24 35 39 41 36 37 42 42 39 36 30 25 18 18 19 19 17 17
30 31 27 25 23 14 10 12 19 23 24 18 17 13 10 8 11 9 5 5 5 2 2 4 6 6 13 19 26 22 26 27 30 35 37 36 36 42 38 41 39 33 28 22 19 22 21 21 21
25 26 21 19 21 22 18 10 13 5 17 17 12 14 12 9 10 12 7 7 6 6 6 6 7 5 6 10 13 23 21 27 33 36 36 37 34 28 26 35 35 30 27 20 23 25 24 25 26
11 13 6 12 12 8 19 13 19 15 14 18 12 10 19 17 13 12 13 10 9 8 8 8 9 8 5 5 9 11 24 31 32 28 28 24 27 27 27 28 30 29 24 25 23 26 27 27 31
22 11 4 3 5 8 10 13 23 20 20 13 8 5 10 18 15 15 16 14 9 8 9 11 11 10 9 7 8 10 14 19 24 24 24 24 25 31 30 26 25 25 28 31 28 33 27 30 34
27 28 9 7 5 3 7 7 7 2 6 17 17 14 12 15 14 13 15 15 11 9 10 10 12 12 11 11 9 10 11 12 15 17 19 21 22 23 25 28 32 34 33 32 34 37 33 36 39
18 23 27 12 5 3 6 10 11 19 14 13 11 10 10 11 14 17 17 16 12 11 10 9 10 12 13 14 14 12 13 14 15 17 20 21 23 24 28 31 31 33 37 39 40 40 40 40 41
26 17 13 15 6 9 6 7 11 9 18 6 10 7 9 10 12 15 18 17 14 13 12 12 12 13 15 16 16 16 16 16 17 18 18 20 22 25 28 30 32 35 38 40 42 43 42 43 43
27 24 16 13 17 6 5 6 8 6 4 1 7 3 3 5 12 14 18 18 17 17 17 16 15 17 16 19 19 19 19 19 21 22 22 23 25 27 29 29 32 37 40 42 45 46 46 46 45
19 22 30 20 8 8 10 13 10 12 6 7 7 9 5 7 10 12 15 18 19 21 22 22 22 22 19 18 16 18 21 24 23 21 22 23 28 30 31 34 37 38 41 44 39 39 45 51 51
Wind_Direction
323 332 322 312 285 200 148 97 328 309 311 261 250 265 308 292 310 302 318 319 239 232 222 215 237 245 218 225 216 230 246 234 223 224 221 223 234 245 247 212 200 190 192 184 179 171 171 162 151
322 324 314 302 139 125 100 360 340 326 308 263 237 271 306 297 299 304 308 296 267 245 237 227 232 226 218 215 222 225 231 236 237 246 216 220 231 249 232 207 192 188 187 189 190 183 172 165 150
316 321 308 192 146 132 348 354 28 16 3 308 259 297 303 299 307 311 308 288 262 259 237 230 227 231 211 208 208 216 218 222 234 231 230 221 234 245 231 203 186 185 185 193 196 185 173 163 151
315 299 266 199 130 25 11 55 61 36 37 37 333 312 324 309 316 315 318 310 283 263 243 228 233 224 200 216 212 217 214 214 219 231 232 219 233 239 225 198 187 183 187 195 194 182 172 159 152
269 281 253 209 117 64 44 219 237 20 341 334 328 325 324 321 313 314 317 318 273 263 243 235 236 242 229 204 241 235 228 213 203 231 225 216 206 243 222 201 184 183 186 193 190 178 166 166 163
252 272 242 215 147 92 53 36 356 267 290 324 317 318 316 318 303 312 313 316 283 267 249 241 238 226 243 256 236 253 236 229 261 209 227 217 208 216 229 208 183 181 185 189 181 175 170 171 172
249 258 245 220 196 160 9 348 339 275 276 292 296 299 316 310 301 306 310 302 284 279 252 241 239 235 241 242 239 240 266 233 249 235 218 225 213 214 223 200 187 181 183 183 177 179 179 181 181
236 244 245 219 216 231 324 309 315 291 290 293 293 293 304 303 300 305 310 313 275 268 256 250 242 242 241 241 233 222 228 253 239 228 217 220 224 205 209 200 186 178 180 180 178 182 185 182 186
234 238 247 209 223 250 312 321 308 301 295 301 296 293 295 300 302 303 297 292 261 264 250 243 238 243 238 231 240 241 244 249 248 201 229 210 201 199 197 197 185 178 179 177 180 184 185 190 190
230 242 260 218 237 274 299 304 304 300 297 308 300 299 292 299 301 300 296 268 247 252 247 249 238 233 230 238 252 257 261 256 251 223 210 198 198 193 195 192 182 178 177 178 176 181 183 180 181
239 247 264 228 246 273 278 286 287 298 299 317 305 298 299 298 302 302 290 281 276 256 240 235 228 235 234 245 250 260 251 258 198 200 202 196 202 194 190 190 183 177 177 178 173 180 178 183 177
246 247 257 238 250 264 273 286 295 293 304 309 306 301 307 311 303 289 284 290 288 285 273 256 257 252 246 247 254 258 285 193 196 191 205 179 186 186 181 177 182 175 174 175 170 169 166 144 223
250 260 257 256 251 262 274 284 287 299 307 312 309 310 313 316 310 293 289 285 283 282 276 264 259 248 243 240 245 250 245 194 197 185 205 177 183 188 187 181 172 175 172 158 177 176 195 187 236
255 261 260 260 260 263 271 282 282 309 309 300 306 309 319 324 339 330 304 296 282 281 279 281 274 258 245 233 233 226 199 192 184 192 188 178 177 190 173 167 169 169 156 157 173 162 189 222 219
254 260 262 265 269 270 275 262 283 309 324 319 311 307 313 316 339 333 315 301 295 294 295 287 273 258 226 211 220 212 223 209 210 199 199 177 182 188 172 167 167 168 174 180 168 179 207 212 213
250 261 264 277 250 217 258 271 278 311 315 308 303 300 308 308 322 344 324 307 304 302 304 291 258 214 213 189 209 194 204 193 193 185 164 180 181 172 170 172 175 179 163 166 170 164 216 206 203
249 252 255 263 241 250 267 272 268 287 291 279 288 290 283 309 301 324 328 315 314 316 322 303 212 206 204 197 187 174 190 197 200 178 175 180 182 183 197 183 205 194 178 165 163 192 210 203 202
234 247 260 261 262 256 250 271 266 279 271 276 281 295 291 291 293 311 310 313 313 324 331 308 185 200 195 180 180 179 186 193 192 183 178 185 189 186 189 204 214 184 186 169 171 196 212 205 204
246 254 259 261 261 257 248 274 272 265 248 264 279 293 279 270 275 291 292 288 311 328 342 306 191 197 190 196 186 190 191 183 197 200 187 193 195 194 204 201 186 183 177 173 184 197 215 217 222
247 247 256 265 269 270 268 270 266 257 261 269 265 289 268 260 263 266 289 250 285 333 1 109 174 194 178 182 188 201 189 197 202 205 204 202 206 197 203 195 196 189 177 185 198 214 222 231 238
244 249 256 264 278 281 282 275 268 257 263 260 268 279 272 262 259 264 265 204 211 337 14 72 200 225 210 205 202 195 205 197 203 203 214 209 200 198 202 194 195 197 191 193 211 223 225 232 242
245 253 259 267 273 276 282 287 267 269 269 267 261 265 267 256 257 255 235 195 189 169 105 84 116 188 218 210 207 212 211 212 193 198 204 214 214 201 209 202 207 204 200 200 219 229 237 240 247
246 253 263 268 268 273 264 263 280 291 280 286 276 252 247 259 248 240 219 220 208 186 179 151 127 132 149 163 183 209 205 205 184 195 219 235 225 230 220 215 219 203 200 212 227 240 248 249 257
233 219 256 262 257 247 250 238 278 272 282 298 282 274 236 241 237 235 226 238 222 203 186 171 160 158 147 126 126 158 189 200 207 197 212 212 220 216 210 207 211 213 219 233 244 251 249 254 252
217 242 247 235 213 241 258 226 254 275 291 288 292 269 238 229 238 242 239 248 241 214 197 184 180 174 169 160 138 139 146 175 195 206 205 211 213 213 211 210 220 226 232 236 246 245 250 260 263
221 219 195 223 220 233 222 222 247 169 269 296 287 285 249 218 232 232 223 226 237 218 209 198 194 191 185 179 178 168 164 171 179 188 195 201 206 205 213 216 221 227 227 229 237 246 258 260 263
207 208 225 247 274 310 231 258 261 278 300 299 270 274 235 231 246 216 215 217 219 212 208 208 213 211 207 199 198 199 192 190 194 196 200 201 205 211 217 219 220 221 223 226 236 248 255 258 260
222 226 194 217 232 244 220 236 229 261 300 299 283 267 231 242 214 202 203 210 206 202 198 209 223 228 225 222 218 214 216 211 211 213 215 217 216 216 219 223 227 230 232 235 242 250 256 258 258
211 219 217 219 227 249 262 237 263 289 219 327 14 273 221 214 194 202 198 208 213 219 222 222 225 239 236 238 235 232 229 229 227 226 224 225 226 229 232 235 239 238 240 244 249 252 256 254 258
226 222 226 228 225 226 245 245 218 257 245 262 307 323 257 215 197 198 208 217 226 228 229 238 239 245 255 252 235 234 237 241 241 245 244 241 241 241 238 238 239 242 250 257 264 275 273 260 249
Height
3138 3137 3137 3137 3141 3137 3136 3137 3137 3137 3137 3136 3136 3136 3136 3135 3135 3137 3132 3130 3130 3131 3132 3131 3132 3133 3135 3137 3140 3144 3145 3148 3149 3150 3151 3152 3154 3156 3159 3161 3164 3167 3169 3169 3171 3173 3174 3173 3174
3137 3136 3136 3135 3138 3136 3136 3135 3135 3135 3134 3134 3134 3134 3134 3134 3133 3132 3131 3130 3129 3128 3130 3129 3128 3128 3129 3131 3136 3141 3144 3146 3147 3148 3149 3150 3154 3155 3157 3160 3164 3167 3169 3170 3171 3173 3173 3173 3174
3135 3135 3135 3135 3136 3135 3135 3134 3133 3133 3133 3132 3133 3134 3133 3132 3131 3129 3128 3127 3126 3126 3126 3126 3124 3127 3125 3126 3132 3135 3139 3143 3145 3145 3147 3148 3151 3153 3156 3159 3163 3166 3168 3169 3170 3171 3172 3174 3175
3133 3135 3135 3134 3134 3135 3134 3132 3132 3132 3132 3132 3132 3132 3131 3130 3129 3127 3126 3124 3123 3123 3122 3121 3119 3120 3119 3128 3132 3132 3135 3138 3140 3143 3145 3147 3150 3151 3155 3158 3161 3164 3167 3168 3171 3172 3174 3175 3176
3133 3132 3132 3132 3133 3133 3132 3131 3131 3131 3131 3130 3130 3129 3128 3127 3126 3124 3121 3120 3117 3118 3117 3117 3120 3122 3124 3128 3133 3134 3133 3134 3136 3141 3142 3145 3148 3151 3155 3157 3159 3162 3164 3167 3170 3172 3174 3176 3177
3131 3130 3130 3131 3131 3131 3130 3129 3129 3129 3129 3129 3127 3126 3126 3124 3123 3121 3119 3117 3114 3113 3113 3112 3115 3120 3123 3126 3128 3127 3125 3112 3128 3131 3140 3142 3144 3148 3154 3157 3158 3160 3164 3167 3170 3172 3174 3176 3176
3128 3128 3128 3128 3129 3129 3128 3128 3128 3127 3126 3126 3125 3123 3122 3120 3119 3118 3116 3113 3110 3107 3108 3109 3110 3116 3119 3121 3122 3125 3125 3123 3123 3125 3133 3136 3141 3145 3152 3155 3157 3159 3163 3167 3170 3172 3174 3175 3176
3125 3126 3125 3125 3126 3128 3126 3126 3126 3125 3125 3123 3122 3119 3118 3116 3115 3113 3112 3110 3107 3105 3106 3105 3107 3110 3112 3115 3117 3114 3116 3118 3111 3120 3125 3131 3137 3143 3149 3153 3155 3158 3163 3166 3168 3171 3174 3175 3176
3123 3123 3121 3121 3122 3124 3123 3123 3123 3122 3121 3120 3118 3116 3113 3111 3110 3108 3106 3106 3106 3105 3103 3104 3105 3106 3106 3107 3109 3110 3111 3114 3110 3102 3117 3125 3133 3140 3145 3150 3154 3157 3162 3165 3168 3171 3172 3174 3175
3119 3118 3118 3119 3119 3120 3120 3120 3119 3120 3118 3117 3114 3112 3109 3106 3106 3103 3101 3100 3101 3103 3102 3101 3102 3103 3104 3104 3104 3104 3104 3102 3104 3106 3108 3120 3128 3135 3143 3149 3153 3157 3161 3165 3167 3170 3171 3173 3175
3114 3114 3115 3116 3116 3116 3117 3117 3117 3116 3114 3113 3110 3108 3105 3103 3101 3099 3096 3097 3097 3097 3099 3099 3100 3100 3101 3101 3100 3099 3097 3091 3095 3096 3103 3113 3123 3132 3140 3146 3152 3156 3160 3164 3167 3169 3172 3174 3176
3110 3111 3111 3113 3112 3112 3114 3113 3113 3112 3111 3108 3105 3103 3102 3099 3097 3095 3094 3092 3091 3091 3092 3093 3094 3096 3096 3096 3095 3093 3091 3084 3089 3096 3100 3110 3120 3130 3138 3144 3152 3156 3159 3163 3166 3170 3173 3174 3177
3105 3107 3107 3108 3108 3108 3110 3110 3109 3107 3106 3103 3101 3100 3098 3097 3093 3091 3090 3089 3088 3088 3088 3088 3089 3091 3092 3092 3091 3089 3088 3087 3092 3093 3102 3111 3120 3127 3136 3144 3150 3155 3158 3162 3167 3170 3173 3173 3178
3102 3103 3103 3103 3104 3104 3105 3106 3105 3104 3102 3099 3098 3097 3096 3094 3091 3087 3086 3086 3085 3085 3085 3084 3084 3086 3087 3087 3088 3090 3091 3091 3094 3097 3101 3111 3119 3128 3136 3143 3149 3153 3157 3162 3167 3168 3171 3174 3176
3099 3098 3098 3098 3100 3099 3101 3100 3100 3100 3099 3097 3096 3095 3094 3092 3090 3087 3085 3083 3083 3082 3081 3080 3080 3080 3081 3085 3087 3089 3088 3092 3094 3098 3101 3109 3119 3127 3134 3141 3147 3152 3155 3160 3165 3168 3169 3173 3174
3095 3094 3093 3093 3095 3095 3096 3096 3098 3097 3096 3095 3093 3093 3092 3091 3089 3088 3085 3083 3081 3080 3079 3077 3076 3077 3079 3082 3084 3087 3090 3091 3094 3099 3106 3113 3121 3128 3134 3138 3144 3149 3154 3159 3163 3164 3170 3171 3171
3090 3088 3089 3091 3092 3092 3092 3092 3095 3093 3093 3092 3091 3090 3089 3088 3087 3086 3085 3082 3080 3078 3075 3073 3073 3075 3078 3080 3083 3087 3090 3092 3095 3099 3108 3115 3122 3127 3133 3137 3144 3151 3153 3155 3160 3164 3168 3168 3169
3083 3085 3085 3086 3087 3087 3087 3088 3090 3090 3089 3089 3089 3087 3086 3086 3085 3084 3083 3081 3079 3076 3072 3067 3070 3073 3076 3080 3084 3087 3090 3093 3095 3099 3106 3114 3118 3125 3130 3136 3142 3146 3149 3152 3157 3163 3165 3166 3167
3080 3082 3081 3082 3083 3082 3083 3082 3085 3085 3085 3085 3085 3084 3083 3083 3083 3082 3081 3079 3077 3075 3071 3065 3070 3073 3076 3080 3083 3086 3090 3094 3097 3098 3103 3110 3116 3122 3128 3132 3136 3140 3147 3151 3154 3159 3161 3163 3165
3076 3076 3076 3078 3079 3079 3078 3076 3079 3080 3080 3081 3081 3080 3079 3079 3079 3079 3079 3077 3075 3073 3071 3067 3070 3073 3077 3080 3083 3086 3090 3094 3097 3098 3102 3108 3114 3120 3124 3128 3134 3139 3143 3147 3152 3156 3157 3160 3160
3070 3070 3072 3075 3075 3075 3074 3070 3073 3075 3075 3076 3076 3076 3076 3076 3076 3077 3076 3076 3075 3073 3072 3071 3072 3074 3075 3077 3081 3084 3087 3091 3095 3098 3100 3106 3111 3117 3122 3128 3133 3138 3142 3146 3150 3153 3155 3156 3157
3066 3066 3070 3072 3074 3073 3071 3065 3067 3069 3069 3069 3071 3072 3072 3073 3073 3074 3073 3074 3074 3074 3074 3073 3072 3073 3075 3076 3078 3081 3084 3086 3090 3095 3100 3104 3108 3113 3120 3124 3129 3135 3139 3143 3146 3150 3152 3152 3153
3061 3064 3067 3069 3069 3068 3067 3070 3060 3062 3063 3063 3065 3066 3067 3069 3070 3071 3071 3071 3073 3073 3074 3074 3073 3074 3075 3075 3075 3077 3081 3084 3089 3095 3098 3101 3105 3110 3116 3120 3124 3129 3133 3138 3144 3146 3146 3148 3147
3058 3063 3064 3065 3066 3063 3060 3065 3053 3058 3058 3057 3059 3061 3061 3063 3066 3067 3068 3069 3071 3072 3073 3074 3074 3074 3075 3075 3075 3075 3077 3082 3088 3091 3096 3100 3103 3107 3111 3115 3120 3126 3129 3134 3137 3141 3140 3142 3141
3055 3059 3062 3063 3062 3054 3055 3057 3051 3053 3053 3053 3053 3056 3056 3057 3060 3063 3064 3066 3068 3070 3071 3073 3074 3075 3076 3077 3077 3077 3077 3080 3085 3088 3091 3094 3098 3102 3107 3111 3116 3121 3126 3129 3131 3133 3133 3134 3133
3047 3052 3054 3054 3053 3050 3050 3048 3048 3048 3050 3050 3050 3051 3052 3052 3055 3057 3060 3063 3065 3068 3070 3071 3073 3075 3076 3078 3079 3080 3081 3082 3085 3087 3090 3093 3097 3101 3105 3108 3111 3116 3120 3123 3126 3127 3127 3128 3127
3044 3045 3051 3051 3050 3050 3045 3044 3045 3046 3047 3046 3044 3046 3048 3049 3049 3051 3055 3059 3062 3064 3067 3069 3071 3073 3075 3076 3078 3080 3082 3083 3085 3087 3090 3092 3095 3098 3101 3104 3107 3111 3114 3116 3118 3119 3120 3119 3119
3039 3043 3047 3049 3047 3044 3039 3041 3041 3043 3043 3043 3042 3042 3044 3044 3046 3047 3050 3054 3059 3061 3063 3065 3067 3070 3072 3074 3076 3078 3080 3082 3084 3086 3088 3090 3092 3094 3097 3100 3103 3105 3108 3109 3110 3111 3112 3110 3111
3034 3036 3037 3039 3038 3035 3035 3036 3038 3039 3039 3041 3041 3041 3042 3042 3043 3044 3047 3050 3054 3057 3060 3061 3063 3065 3067 3069 3072 3074 3076 3077 3079 3082 3084 3087 3089 3092 3094 3096 3097 3098 3100 3102 3102 3102 3102 3101 3101
3028 3031 3033 3033 3033 3033 3032 3031 3035 3037 3039 3039 3039 3040 3040 3041 3042 3043 3045 3047 3049 3051 3053 3056 3058 3060 3062 3065 3067 3068 3070 3073 3075 3078 3082 3083 3085 3087 3088 3089 3090 3092 3093 3093 3090 3091 3091 3088 3090